EWG3AM EDDL-EPWA

Flight info

Callsign EWG3AM
Flight time N/A
Altitude 37000
Route MEVEL4T/23L MEVEL L179 MISRI Z851 ROBEG DCT ALUKA DCT TUPUR L29 TADAK DCT NASOK DCT SORIX
Aircraft A20N/M-SDE2E3FGHIRWXY/LB1

Departure

Time N/A
Airport Düsseldorf Airport (EDDL)

Arrival

Time 2026-05-03 21:01
Airport Warsaw Chopin Airport (EPWA)
Time Latitude Longitude Altitude Speed Heading
2026-05-03 20:15 52.79461 13.38150 36908 ft 452 kts 80°
2026-05-03 20:15 52.80645 13.48279 36911 ft 452 kts 80°
2026-05-03 20:16 52.81826 13.58454 36914 ft 452 kts 80°
2026-05-03 20:16 52.82990 13.68561 36914 ft 451 kts 81°
2026-05-03 20:17 52.84150 13.78745 36923 ft 451 kts 81°
2026-05-03 20:17 52.85303 13.88939 36931 ft 450 kts 81°
2026-05-03 20:18 52.86441 13.99068 36945 ft 450 kts 81°
2026-05-03 20:18 52.87568 14.09192 36945 ft 450 kts 81°
2026-05-03 20:19 52.88687 14.19332 36940 ft 449 kts 81°
2026-05-03 20:19 52.89819 14.29489 36940 ft 450 kts 79°
2026-05-03 20:20 52.91317 14.39473 36940 ft 450 kts 76°
2026-05-03 20:20 52.92918 14.49474 36937 ft 450 kts 75°
2026-05-03 20:21 52.94509 14.59495 36938 ft 451 kts 75°
2026-05-03 20:21 52.96076 14.69481 36932 ft 450 kts 76°
2026-05-03 20:22 52.97638 14.79531 36926 ft 450 kts 76°
2026-05-03 20:22 52.99193 14.89582 36928 ft 449 kts 76°
2026-05-03 20:23 53.00725 14.99539 36926 ft 449 kts 76°
2026-05-03 20:23 53.02257 15.09551 36923 ft 449 kts 76°
2026-05-03 20:24 53.03783 15.19591 36924 ft 449 kts 76°
2026-05-03 20:24 53.05296 15.29613 36919 ft 450 kts 76°
2026-05-03 20:25 53.06803 15.39654 36907 ft 451 kts 76°
2026-05-03 20:25 53.08309 15.49754 36904 ft 450 kts 76°
2026-05-03 20:26 53.09798 15.59810 36903 ft 450 kts 76°
2026-05-03 20:26 53.11307 15.69929 36903 ft 451 kts 76°
2026-05-03 20:27 53.12790 15.80014 36902 ft 451 kts 77°
2026-05-03 20:27 53.14281 15.90177 36900 ft 451 kts 76°
2026-05-03 20:28 53.15754 16.00304 36903 ft 451 kts 76°
2026-05-03 20:28 53.17205 16.10375 36903 ft 450 kts 76°
2026-05-03 20:29 53.18656 16.20527 36904 ft 451 kts 77°
2026-05-03 20:29 53.20088 16.30630 36908 ft 451 kts 77°
2026-05-03 20:30 53.21517 16.40789 36913 ft 450 kts 76°
2026-05-03 20:30 53.22929 16.50909 36912 ft 450 kts 76°
2026-05-03 20:31 53.24334 16.61037 36917 ft 450 kts 76°
2026-05-03 20:31 53.25729 16.71171 36924 ft 449 kts 77°
2026-05-03 20:32 53.26975 16.81325 36924 ft 448 kts 82°
2026-05-03 20:32 53.27520 16.91657 36923 ft 448 kts 89°
2026-05-03 20:33 53.27282 17.01949 36930 ft 447 kts 97°
2026-05-03 20:33 53.26461 17.12201 36936 ft 447 kts 98°
2026-05-03 20:34 53.25584 17.22460 36934 ft 447 kts 98°
2026-05-03 20:34 53.24715 17.32663 36934 ft 447 kts 98°
2026-05-03 20:35 53.23840 17.42882 36937 ft 445 kts 98°
2026-05-03 20:35 53.22958 17.53125 36935 ft 445 kts 98°
2026-05-03 20:36 53.22075 17.63277 36930 ft 446 kts 98°
2026-05-03 20:36 53.21178 17.73501 36927 ft 446 kts 99°
2026-05-03 20:37 53.20272 17.83727 36931 ft 446 kts 99°
2026-05-03 20:37 53.19360 17.93920 36931 ft 446 kts 99°
2026-05-03 20:38 53.18441 18.04056 36931 ft 446 kts 98°
2026-05-03 20:38 53.17509 18.14229 36929 ft 445 kts 98°
2026-05-03 20:39 53.16570 18.24397 36819 ft 446 kts 98°
2026-05-03 20:39 53.16099 18.29457 36400 ft 444 kts 98°
2026-05-03 20:39 53.15625 18.34528 35851 ft 444 kts 98°
2026-05-03 20:39 53.15151 18.39569 35267 ft 445 kts 98°
2026-05-03 20:40 53.14674 18.44622 34666 ft 445 kts 98°
2026-05-03 20:40 53.14189 18.49742 34015 ft 445 kts 98°
2026-05-03 20:40 53.13712 18.54744 33380 ft 445 kts 98°
2026-05-03 20:40 53.13222 18.59859 32721 ft 445 kts 98°
2026-05-03 20:41 53.12734 18.64919 32061 ft 446 kts 98°
2026-05-03 20:41 53.12246 18.69975 31399 ft 446 kts 99°
2026-05-03 20:41 53.11764 18.74931 30737 ft 447 kts 99°
2026-05-03 20:41 53.11257 18.80117 30041 ft 447 kts 99°
2026-05-03 20:42 53.10753 18.85248 29342 ft 448 kts 99°
2026-05-03 20:42 53.10248 18.90365 28635 ft 449 kts 99°
2026-05-03 20:42 53.09708 18.95395 27917 ft 450 kts 103°
2026-05-03 20:42 53.08722 19.00334 27172 ft 450 kts 114°
2026-05-03 20:43 53.07229 19.04858 26484 ft 450 kts 124°
2026-05-03 20:43 53.05339 19.09011 25812 ft 452 kts 129°
2026-05-03 20:43 53.03388 19.13022 25290 ft 447 kts 129°
2026-05-03 20:43 53.01440 19.16986 24770 ft 443 kts 130°
2026-05-03 20:44 52.99501 19.20941 24266 ft 438 kts 129°
2026-05-03 20:44 52.97599 19.24837 23762 ft 435 kts 129°
2026-05-03 20:44 52.95724 19.28687 23275 ft 431 kts 129°
2026-05-03 20:44 52.93875 19.32486 22791 ft 427 kts 129°
2026-05-03 20:45 52.92010 19.36318 22292 ft 424 kts 129°
2026-05-03 20:45 52.90163 19.40110 21793 ft 421 kts 130°
2026-05-03 20:45 52.88356 19.43800 21308 ft 418 kts 130°
2026-05-03 20:45 52.86509 19.47550 20798 ft 415 kts 130°
2026-05-03 20:46 52.84690 19.51248 20300 ft 412 kts 130°
2026-05-03 20:46 52.82892 19.54908 19810 ft 410 kts 130°
2026-05-03 20:46 52.81113 19.58530 19313 ft 407 kts 130°
2026-05-03 20:46 52.79330 19.62160 18815 ft 405 kts 130°
2026-05-03 20:47 52.77565 19.65749 18316 ft 402 kts 131°
2026-05-03 20:47 52.75828 19.69286 17824 ft 400 kts 131°
2026-05-03 20:47 52.74078 19.72841 17327 ft 396 kts 131°
2026-05-03 20:47 52.72345 19.76356 16449 ft 393 kts 131°
2026-05-03 20:48 52.70638 19.79876 15133 ft 399 kts 129°
2026-05-03 20:48 52.69069 19.83558 13875 ft 401 kts 125°
2026-05-03 20:48 52.67644 19.87453 12793 ft 396 kts 122°
2026-05-03 20:48 52.66302 19.91315 11780 ft 389 kts 122°
2026-05-03 20:49 52.64991 19.95105 10987 ft 376 kts 121°
2026-05-03 20:49 52.63717 19.98783 10520 ft 363 kts 122°
2026-05-03 20:49 52.62509 20.02262 10319 ft 338 kts 122°
2026-05-03 20:49 52.61376 20.05517 10228 ft 321 kts 122°
2026-05-03 20:50 52.60294 20.08612 10139 ft 306 kts 122°
2026-05-03 20:50 52.59253 20.11584 10070 ft 293 kts 122°
2026-05-03 20:50 52.58255 20.14424 10007 ft 285 kts 122°
2026-05-03 20:50 52.57270 20.17222 9718 ft 285 kts 122°
2026-05-03 20:51 52.56281 20.20027 9406 ft 284 kts 122°
2026-05-03 20:51 52.55296 20.22822 9099 ft 282 kts 122°
2026-05-03 20:51 52.54314 20.25605 8800 ft 280 kts 122°
2026-05-03 20:51 52.53349 20.28342 8493 ft 279 kts 122°
2026-05-03 20:52 52.52375 20.31105 8181 ft 277 kts 122°
2026-05-03 20:52 52.51294 20.33665 7869 ft 273 kts 135°
2026-05-03 20:52 52.49847 20.35615 7581 ft 268 kts 151°
2026-05-03 20:52 52.48231 20.37104 7308 ft 265 kts 154°
2026-05-03 20:53 52.46616 20.38504 6994 ft 264 kts 154°
2026-05-03 20:53 52.44999 20.39906 6710 ft 262 kts 154°
2026-05-03 20:53 52.43408 20.41295 6436 ft 260 kts 154°
2026-05-03 20:53 52.41806 20.42703 6151 ft 259 kts 154°
2026-05-03 20:54 52.40236 20.44094 5875 ft 258 kts 154°
2026-05-03 20:54 52.37087 20.46885 5330 ft 256 kts 154°
2026-05-03 20:54 52.35539 20.48258 5039 ft 254 kts 154°
2026-05-03 20:55 52.33975 20.49642 4774 ft 253 kts 154°
2026-05-03 20:55 52.32449 20.50993 4577 ft 246 kts 154°
2026-05-03 20:55 52.30994 20.52283 4539 ft 235 kts 154°
2026-05-03 20:55 52.29582 20.53606 4509 ft 237 kts 145°
2026-05-03 20:56 52.28348 20.55461 4299 ft 240 kts 131°
2026-05-03 20:56 52.27433 20.57700 4109 ft 240 kts 119°
2026-05-03 20:56 52.26749 20.60218 3926 ft 242 kts 114°
2026-05-03 20:56 52.26136 20.62746 3748 ft 242 kts 114°
2026-05-03 20:57 52.25481 20.65285 3568 ft 241 kts 117°
2026-05-03 20:57 52.24795 20.67784 3385 ft 240 kts 118°
2026-05-03 20:57 52.24120 20.70157 3333 ft 228 kts 119°
2026-05-03 20:57 52.23456 20.72466 3201 ft 220 kts 119°
2026-05-03 20:58 52.22810 20.74707 2936 ft 218 kts 119°
2026-05-03 20:58 52.22183 20.76900 2729 ft 206 kts 119°
2026-05-03 20:58 52.21603 20.78937 2427 ft 195 kts 119°
2026-05-03 20:58 52.21044 20.80903 2148 ft 186 kts 120°
2026-05-03 20:59 52.20527 20.82733 1938 ft 173 kts 120°
2026-05-03 20:59 52.20044 20.84464 1703 ft 163 kts 120°
2026-05-03 20:59 52.19594 20.86075 1486 ft 150 kts 120°
2026-05-03 20:59 52.19160 20.87584 1273 ft 145 kts 121°
2026-05-03 21:00 52.18727 20.89060 1110 ft 145 kts 119°
2026-05-03 21:00 52.18446 20.90052 1003 ft 143 kts 118°
2026-05-03 21:00 52.17908 20.91988 751 ft 141 kts 117°
2026-05-03 21:00 52.17500 20.93435 557 ft 140 kts 117°
2026-05-03 21:01 52.17094 20.94867 395 ft 138 kts 117°
2026-05-03 21:01 52.16716 20.96194 366 ft 113 kts 114°
2026-05-03 21:01 52.16462 20.97099 365 ft 64 kts 115°
2026-05-03 21:01 52.16319 20.97616 365 ft 39 kts 114°
2026-05-03 21:02 52.16245 20.97934 365 ft 21 kts 102°
2026-05-03 21:02 52.16234 20.98158 365 ft 15 kts 88°
2026-05-03 21:02 52.16266 20.98257 365 ft 9 kts
2026-05-03 21:02 52.16325 20.98198 365 ft 11 kts 314°
2026-05-03 21:03 52.16376 20.98070 365 ft 15 kts 295°
2026-05-03 21:03 52.16428 20.97888 365 ft 19 kts 295°
2026-05-03 21:03 52.16486 20.97680 365 ft 19 kts 294°
2026-05-03 21:03 52.16541 20.97484 365 ft 18 kts 294°
2026-05-03 21:04 52.16591 20.97309 365 ft 12 kts 295°
2026-05-03 21:04 52.16637 20.97241 365 ft 9 kts 359°
2026-05-03 21:04 52.16713 20.97246 365 ft 12 kts
2026-05-03 21:04 52.16793 20.97199 365 ft 12 kts 332°
2026-05-03 21:05 52.16870 20.97131 365 ft 12 kts 321°
2026-05-03 21:05 52.16932 20.97039 365 ft 12 kts 330°
2026-05-03 21:05 52.16996 20.96986 365 ft 8 kts 347°
2026-05-03 21:05 52.17031 20.97039 365 ft 7 kts 59°
2026-05-03 21:06 52.17044 20.97089 365 ft 2 kts 70°
2026-05-03 21:06 52.17046 20.97097 365 ft 0 kts 71°